Tracking 28799 objects as of 18-Apr-2024
HD Live streaming from Space Station
objects crossing your sky now

INMARSAT 2-F2 R/B(PAM-D)

Track INMARSAT 2-F2 R/B(PAM-D) now!
10-day predictions


NORAD ID: 21151
Int'l Code: 1991-018C
Perigee: 283.0 km
Apogee: 9,413.3 km
Inclination: 23.2 °
Period: 197.1 minutes
Semi major axis: 11219 km
RCS: 2.8102 m2 (large)
Launch date: March 8, 1991
Source: United States (US)
Launch site: AIR FORCE EASTERN TEST RANGE (AFETR)

Note: This is a ROCKET BODY
Your satellite tracking list
Your tracking list is empty




NASA's NSSDC Master Catalog

Two Line Element Set (TLE):
1 21151U 91018C   24107.06805251  .00020425  00000-0  13523-2 0  9999
2 21151  23.2280 325.2286 4069084 312.1162  19.7710  7.30575692679780
Source of the keplerian elements: AFSPC